Wind_Speed
29 28 28 27 26 26 27 28 29 27 27 26 26 26 25 26 26 26 27 28 29 30 31 32 32 33 33 34 34 34 35 35 35 35 35 36 36 36 37 37 38 38 38 39
29 28 28 28 26 27 27 27 27 27 26 26 26 26 26 26 26 26 27 28 28 29 30 31 31 32 33 33 34 34 35 36 35 35 35 35 35 36 36 36 36 36 37 38
29 28 28 28 27 27 27 27 27 27 26 26 26 26 26 26 26 26 26 28 28 28 29 29 30 31 32 32 33 34 34 35 35 35 35 35 35 35 35 35 35 36 37 37
29 28 29 28 27 27 27 26 27 27 26 26 26 26 25 26 27 27 27 27 28 28 28 28 28 29 30 31 31 32 32 33 33 33 32 33 34 34 35 35 35 35 36 36
28 29 29 27 27 27 26 25 25 25 25 26 26 26 26 26 27 27 27 27 27 27 27 27 27 27 28 29 30 30 29 29 30 31 31 31 32 32 33 34 34 34 34 34
28 29 29 27 27 27 26 25 24 25 25 25 26 27 26 26 26 26 27 27 27 26 26 26 26 26 26 27 27 27 27 28 28 29 29 30 30 31 32 32 33 33 33 33
28 28 28 26 26 26 26 25 25 25 26 26 27 27 27 27 27 26 27 27 27 26 25 25 25 25 25 25 25 25 26 27 27 28 28 28 29 30 31 31 31 31 31 32
27 27 26 26 26 26 25 25 25 25 26 27 27 27 27 27 27 26 26 26 26 25 25 24 24 24 24 24 24 24 25 26 27 28 28 28 28 29 29 30 30 30 30 31
26 26 25 25 25 25 25 26 26 26 26 26 27 27 27 28 27 26 25 25 25 24 24 24 24 24 24 24 24 25 25 26 27 27 28 28 28 29 29 29 28 28 29 29
26 25 25 25 24 24 24 25 25 26 26 26 27 27 27 27 26 25 24 23 24 24 24 24 24 25 25 25 24 25 25 26 26 26 27 27 28 28 28 27 27 27 28 29
25 24 24 24 23 23 24 25 25 26 26 26 26 26 26 25 25 24 24 23 23 23 24 25 25 26 26 26 26 26 26 26 26 26 27 27 26 27 27 27 27 27 27 28
24 24 24 23 23 24 24 24 24 25 25 25 25 25 24 24 24 24 24 23 23 23 23 24 24 24 25 25 26 26 26 26 26 26 26 26 25 25 26 26 27 28 28 28
23 23 24 24 24 24 24 24 24 25 25 24 24 24 23 24 24 24 23 23 23 23 23 23 23 23 24 24 25 25 25 25 25 25 25 25 25 25 26 26 27 27 27 27
22 23 23 23 24 25 26 25 25 25 24 24 24 24 24 24 24 24 23 23 23 23 23 23 23 23 23 24 24 25 24 24 24 24 24 24 24 24 25 25 25 25 25 25
22 23 23 24 24 25 26 25 24 24 24 23 23 23 24 23 23 23 22 22 22 22 22 22 22 23 23 23 23 23 23 23 23 22 22 22 23 23 23 22 23 23 22 22
21 22 22 22 22 22 22 22 22 22 22 22 22 22 22 21 21 20 20 20 20 20 21 21 22 22 22 22 21 22 22 22 21 21 21 22 22 21 21 20 20 20 20 20
20 20 20 20 20 20 21 21 21 20 21 21 20 21 20 20 20 20 19 19 19 20 20 21 21 21 21 21 21 21 21 21 21 21 21 20 20 19 19 19 19 18 18 18
18 18 18 18 18 19 19 20 19 19 19 19 19 19 19 19 19 19 19 19 19 20 20 20 20 20 20 19 19 20 20 21 20 20 19 19 18 18 17 17 17 17 16 16
17 18 18 18 18 18 18 19 19 19 18 18 17 17 17 18 18 19 19 19 19 19 20 20 19 19 19 19 19 19 19 19 19 19 18 17 16 16 16 16 15 14 13 12
18 18 18 18 18 18 19 19 19 18 18 17 17 17 17 17 18 18 19 19 19 20 19 19 19 19 19 19 19 19 18 18 18 18 17 17 16 15 15 15 14 13 12 11
17 18 18 18 18 19 19 19 18 18 17 17 17 17 17 17 17 18 17 18 18 18 18 18 18 18 18 18 18 18 18 17 17 17 17 16 16 15 15 14 13 12 11 11
17 17 17 17 17 17 17 17 17 17 17 16 16 16 16 16 17 17 17 17 17 17 17 17 17 17 17 17 17 17 17 17 17 17 17 17 16 16 15 15 13 12 11 11
16 16 16 16 16 15 15 15 15 15 15 15 15 15 16 16 16 16 16 17 17 16 16 16 16 16 16 16 16 16 16 16 17 17 17 17 16 16 15 15 14 13 12 12
16 16 15 15 15 14 14 13 14 14 14 14 15 15 15 15 16 16 17 16 16 16 16 16 16 15 15 15 15 15 15 15 16 15 15 15 15 15 15 15 14 14 13 12
15 15 15 15 14 14 13 13 13 13 13 14 14 14 15 15 16 16 16 16 16 16 16 16 15 15 15 14 14 14 14 14 14 14 14 14 13 14 14 14 14 14 13 13
15 14 14 14 13 13 13 13 13 13 13 14 14 15 15 16 16 16 16 16 16 16 16 15 14 14 13 12 12 12 12 12 12 12 12 12 12 12 12 12 12 13 13 13
14 14 13 13 13 13 13 13 13 13 13 14 14 15 16 16 16 16 16 16 16 15 15 14 13 12 11 11 11 11 11 11 11 11 11 11 11 11 11 11 11 12 12 12
Wind_Direction
278 275 273 272 271 270 270 271 273 274 276 277 278 277 273 272 272 274 275 275 273 272 271 269 266 264 262 261 261 261 262 264 266 266 267 268 269 268 268 269 270 270 269 270
277 274 271 269 269 270 271 272 273 275 275 276 276 275 273 273 274 276 278 278 277 275 273 272 268 265 264 262 260 261 262 264 265 266 267 268 267 267 268 270 271 270 270 270
277 274 271 267 268 271 273 273 274 274 274 274 273 274 275 275 276 277 279 280 278 276 275 274 270 266 265 263 262 262 264 265 265 266 267 266 266 268 269 270 271 271 271 271
277 274 271 271 270 273 275 274 274 273 273 272 273 274 275 277 278 277 278 279 279 278 276 274 272 269 267 265 264 264 265 265 266 266 267 268 269 269 270 271 271 272 273 272
277 274 274 272 273 274 275 274 273 273 271 272 274 275 276 278 278 278 277 278 280 279 277 274 273 271 268 267 266 266 266 266 267 267 268 269 270 271 271 272 273 274 274 273
276 275 276 275 274 274 273 272 272 272 272 274 275 277 279 279 278 277 277 278 279 279 277 275 273 272 270 268 267 267 267 267 268 269 270 270 272 273 273 273 273 274 274 274
276 276 276 275 275 274 273 274 274 273 274 275 277 278 279 279 279 278 278 277 278 277 277 275 274 272 271 269 267 268 268 269 270 270 271 271 272 273 273 274 273 273 274 274
275 276 275 274 273 273 273 273 274 275 276 277 279 280 280 280 280 280 280 278 276 274 275 275 274 272 271 270 268 269 270 270 271 270 271 271 272 273 274 275 274 274 274 275
275 276 275 273 272 271 272 273 275 277 277 278 280 281 281 281 282 282 280 278 275 274 274 274 274 272 270 271 269 271 272 271 271 271 272 273 274 274 274 275 275 275 275 275
276 274 273 272 270 270 272 274 275 276 277 279 280 280 280 279 280 281 281 279 277 276 275 274 273 271 269 270 270 270 273 273 273 274 275 275 275 276 275 275 275 276 277 276
275 274 272 270 271 271 272 274 276 277 278 279 279 279 278 278 279 280 280 280 279 277 275 274 274 273 271 270 270 272 273 273 275 276 277 277 277 275 274 273 275 277 278 279
274 273 272 271 271 270 271 273 276 279 279 279 279 279 278 278 279 280 280 279 279 279 278 276 276 273 271 271 271 272 274 275 276 277 276 277 276 276 275 276 277 278 280 281
275 275 275 275 273 272 273 275 278 279 279 280 279 278 278 279 279 279 279 279 279 279 278 277 276 276 274 272 272 273 275 276 276 276 277 276 277 277 278 278 280 280 280 282
275 276 276 275 275 275 275 277 277 278 279 279 278 277 278 279 279 279 279 279 279 279 279 278 278 278 277 274 273 273 274 274 274 275 277 278 278 278 280 280 280 280 280 282
275 277 278 278 277 276 277 277 277 278 280 279 277 278 279 279 279 278 279 280 280 281 281 279 279 279 279 276 273 272 273 273 274 275 275 277 279 281 282 282 283 282 282 282
276 278 281 282 279 277 277 278 278 279 279 278 278 278 278 278 278 279 279 279 280 282 283 281 281 280 279 277 273 271 271 272 272 273 274 276 278 279 280 282 283 284 283 282
278 280 281 281 281 280 279 280 280 280 280 279 278 277 278 278 278 278 278 279 282 284 285 285 282 280 277 276 274 272 271 271 272 274 276 276 277 277 278 279 281 282 282 279
280 281 281 282 282 282 281 281 281 281 280 279 277 277 278 278 278 278 279 280 282 284 286 286 284 281 278 276 275 274 271 271 271 272 273 274 274 275 276 279 280 282 281 279
283 284 283 282 283 283 284 284 282 280 278 278 278 277 278 278 279 280 280 281 283 285 286 286 285 282 279 276 276 275 273 270 267 268 269 271 272 274 275 277 280 282 282 279
284 286 286 284 281 281 283 282 280 278 277 278 280 280 281 281 282 283 283 283 284 285 285 284 283 282 279 277 275 272 271 268 266 265 267 268 271 272 273 275 275 275 276 275
284 286 287 285 282 282 282 280 278 277 278 279 280 281 282 283 284 285 287 287 287 287 286 285 283 282 279 276 273 270 268 267 266 266 266 266 267 268 268 269 270 269 267 266
284 286 286 286 286 283 282 280 278 277 278 279 280 282 284 285 286 287 288 288 288 288 288 287 284 281 279 275 273 270 268 267 265 266 266 266 265 265 264 264 264 264 262 262
288 288 288 288 288 286 282 280 278 278 278 279 281 284 286 286 287 287 287 287 287 287 288 288 286 284 280 278 275 271 269 268 266 265 264 263 260 258 256 255 256 257 259 260
292 291 290 289 288 286 283 280 278 279 280 281 283 285 288 288 289 289 288 288 287 287 287 287 287 285 283 280 276 273 270 268 267 265 262 259 257 256 253 252 253 254 255 256
292 292 291 288 285 284 283 282 281 282 282 284 286 288 289 290 291 293 292 289 288 287 287 287 285 284 283 279 275 273 271 269 264 262 259 258 256 254 252 251 251 251 250 251
290 290 289 285 282 281 281 282 282 282 282 284 287 291 292 292 293 294 294 292 291 290 289 288 287 285 280 275 273 271 269 266 261 258 257 255 254 253 251 250 248 247 247 247
287 287 286 283 281 281 281 281 281 282 283 286 289 291 293 294 293 293 293 293 292 291 289 288 287 283 278 275 274 270 267 263 258 254 252 251 251 251 251 249 248 248 249 248
Height
5604 5603 5602 5602 5601 5601 5600 5599 5598 5599 5598 5598 5597 5595 5594 5593 5592 5592 5591 5590 5589 5588 5587 5587 5587 5587 5587 5588 5588 5589 5589 5589 5590 5590 5590 5590 5590 5589 5589 5589 5589 5588 5588 5588
5596 5595 5594 5593 5594 5593 5592 5591 5591 5590 5591 5590 5588 5587 5586 5585 5584 5584 5583 5582 5580 5579 5578 5577 5577 5577 5577 5578 5578 5579 5579 5579 5579 5579 5579 5579 5579 5579 5579 5579 5578 5578 5577 5577
5587 5586 5585 5585 5587 5586 5585 5584 5583 5582 5584 5582 5581 5579 5578 5578 5577 5576 5575 5573 5572 5570 5569 5568 5568 5567 5568 5568 5568 5569 5569 5569 5569 5569 5569 5569 5569 5569 5568 5568 5568 5567 5567 5566
5579 5579 5577 5580 5579 5578 5577 5577 5575 5575 5574 5573 5572 5571 5571 5570 5569 5568 5566 5565 5563 5562 5561 5560 5559 5558 5558 5559 5559 5559 5559 5559 5559 5559 5559 5559 5559 5559 5558 5558 5557 5557 5556 5556
5571 5569 5568 5571 5571 5570 5569 5569 5568 5567 5566 5566 5564 5564 5563 5562 5560 5559 5558 5556 5555 5553 5552 5551 5550 5550 5550 5550 5550 5550 5550 5550 5550 5550 5550 5550 5549 5549 5548 5548 5547 5546 5546 5545
5563 5561 5561 5564 5563 5561 5561 5560 5561 5559 5558 5557 5556 5556 5557 5554 5552 5550 5549 5548 5546 5545 5544 5543 5542 5542 5542 5541 5541 5541 5541 5541 5541 5541 5541 5540 5540 5539 5538 5538 5537 5537 5536 5535
5555 5553 5553 5555 5554 5553 5554 5554 5553 5551 5550 5549 5548 5548 5548 5545 5544 5542 5541 5539 5538 5537 5536 5535 5534 5534 5534 5534 5534 5533 5533 5533 5532 5532 5532 5531 5531 5530 5529 5528 5528 5527 5526 5525
5548 5546 5549 5547 5546 5546 5545 5544 5543 5543 5542 5541 5540 5539 5538 5537 5535 5534 5532 5531 5530 5529 5529 5528 5527 5527 5526 5526 5526 5526 5525 5525 5524 5524 5523 5522 5522 5521 5520 5519 5518 5517 5516 5515
5541 5542 5540 5538 5538 5537 5537 5536 5536 5535 5534 5533 5532 5531 5530 5529 5527 5526 5525 5523 5522 5522 5521 5520 5520 5519 5519 5519 5518 5518 5517 5517 5516 5515 5515 5514 5513 5512 5511 5510 5509 5508 5507 5506
5533 5533 5532 5531 5530 5530 5529 5528 5528 5527 5526 5525 5524 5523 5522 5521 5520 5518 5517 5516 5515 5514 5513 5513 5512 5512 5511 5511 5510 5510 5510 5509 5508 5507 5506 5506 5504 5503 5502 5501 5501 5500 5498 5498
5525 5525 5524 5524 5523 5523 5522 5521 5520 5519 5518 5517 5516 5515 5514 5513 5512 5511 5510 5509 5508 5507 5506 5505 5504 5504 5503 5503 5503 5502 5502 5501 5500 5499 5498 5497 5496 5495 5494 5494 5492 5491 5490 5489
5518 5518 5517 5517 5516 5515 5514 5513 5512 5511 5510 5509 5508 5507 5506 5505 5504 5503 5502 5501 5500 5499 5498 5498 5497 5496 5495 5495 5495 5494 5494 5493 5492 5491 5490 5489 5488 5488 5487 5486 5485 5483 5482 5480
5510 5510 5509 5509 5508 5507 5506 5506 5505 5504 5503 5501 5500 5499 5498 5497 5497 5496 5495 5494 5493 5492 5491 5490 5489 5488 5488 5487 5487 5486 5486 5485 5484 5483 5482 5481 5481 5480 5479 5478 5477 5475 5474 5472
5502 5502 5501 5501 5500 5500 5499 5498 5497 5496 5495 5494 5493 5492 5491 5490 5489 5488 5487 5486 5485 5484 5484 5483 5482 5481 5480 5479 5478 5478 5478 5477 5477 5476 5475 5474 5473 5472 5471 5470 5469 5468 5466 5464
5496 5495 5494 5494 5493 5492 5491 5490 5489 5488 5487 5486 5485 5485 5484 5483 5482 5481 5480 5479 5478 5477 5476 5475 5474 5473 5472 5471 5470 5470 5470 5469 5469 5468 5468 5467 5466 5465 5464 5463 5461 5460 5459 5457
5489 5488 5487 5486 5485 5485 5484 5483 5482 5481 5480 5479 5478 5477 5476 5475 5474 5473 5473 5472 5471 5470 5469 5467 5466 5465 5464 5463 5462 5462 5462 5462 5461 5461 5461 5460 5459 5458 5457 5456 5455 5453 5452 5451
5483 5482 5481 5480 5479 5478 5477 5476 5475 5474 5473 5472 5471 5470 5469 5468 5468 5467 5466 5465 5464 5463 5461 5460 5459 5457 5456 5456 5455 5455 5455 5455 5454 5454 5454 5453 5452 5452 5451 5450 5449 5447 5446 5445
5476 5476 5475 5474 5473 5472 5470 5469 5468 5467 5466 5465 5464 5464 5463 5462 5461 5460 5459 5458 5457 5456 5454 5452 5451 5450 5449 5449 5448 5448 5447 5448 5447 5447 5447 5447 5446 5446 5445 5444 5443 5442 5441 5439
5470 5470 5469 5468 5467 5466 5464 5463 5462 5461 5460 5459 5458 5457 5456 5455 5454 5454 5453 5451 5450 5449 5447 5445 5444 5443 5442 5442 5441 5441 5441 5441 5441 5441 5441 5441 5440 5440 5439 5439 5438 5437 5436 5435
5464 5464 5462 5461 5460 5459 5458 5457 5456 5455 5454 5454 5453 5451 5450 5449 5448 5447 5446 5445 5443 5442 5441 5439 5438 5437 5436 5435 5435 5434 5434 5434 5435 5435 5435 5435 5435 5435 5434 5434 5433 5433 5432 5432
5459 5458 5457 5455 5454 5453 5452 5451 5451 5450 5449 5448 5447 5446 5444 5443 5442 5440 5439 5438 5437 5435 5434 5433 5431 5430 5430 5429 5428 5428 5428 5429 5429 5429 5429 5429 5429 5429 5429 5429 5429 5429 5429 5428
5453 5452 5451 5450 5448 5447 5446 5445 5444 5444 5443 5442 5441 5440 5439 5437 5436 5435 5433 5432 5431 5430 5428 5427 5426 5425 5424 5423 5423 5423 5423 5423 5423 5423 5423 5424 5424 5424 5424 5425 5425 5425 5425 5425
5448 5446 5445 5444 5443 5441 5440 5439 5439 5438 5437 5436 5435 5434 5433 5432 5431 5429 5428 5427 5425 5424 5423 5422 5420 5419 5418 5417 5417 5417 5417 5417 5417 5417 5418 5418 5418 5418 5419 5420 5420 5421 5421 5421
5442 5441 5440 5439 5437 5436 5435 5434 5434 5433 5432 5431 5430 5429 5428 5427 5425 5424 5423 5421 5420 5419 5417 5416 5415 5414 5413 5412 5412 5412 5411 5411 5411 5412 5412 5412 5412 5413 5414 5414 5415 5416 5417 5417
5437 5436 5434 5433 5432 5431 5430 5429 5429 5428 5427 5426 5425 5424 5423 5421 5420 5418 5417 5416 5415 5413 5412 5411 5410 5409 5408 5407 5407 5406 5406 5406 5406 5406 5407 5407 5407 5408 5408 5409 5410 5411 5412 5413
5431 5430 5429 5428 5427 5426 5425 5425 5424 5423 5422 5421 5420 5419 5417 5416 5414 5413 5411 5410 5409 5408 5407 5406 5405 5404 5403 5402 5402 5402 5402 5402 5402 5402 5402 5402 5403 5403 5404 5404 5405 5406 5407 5408
5426 5425 5424 5423 5422 5422 5421 5420 5419 5418 5417 5417 5415 5414 5412 5410 5409 5407 5406 5405 5404 5402 5402 5401 5400 5399 5399 5398 5398 5398 5398 5398 5398 5398 5398 5398 5399 5399 5400 5400 5401 5402 5403 5404